Location: Godiavel Galaoual
(15.2485°N, 12.6604°W)
Time: 17:24:53
(UTC+00:00)

Vanguard 2 Rocket - All Passes

Search period start: 18 June 2021 00:00
Search period end: 28 June 2021 00:00
Orbit: 554 x 3326 km, 32.9° (Epoch: 17 June)

Date Brightness Start Highest point End Pass type
(mag) Time Alt. Az. Time Alt. Az. Time Alt. Az.
18 Jun - 00:10:44 10° WNW 00:22:45 32° N 00:30:13 10° ENE visible
18 Jun - 02:30:01 10° NW 02:39:06 54° NNE 02:44:24 10° E visible
18 Jun - 04:47:22 10° W 04:52:01 24° SW 04:55:33 10° SSE visible
18 Jun - 14:03:27 10° SSE 14:05:56 10° SE 14:08:33 10° SE daylight
18 Jun - 16:07:29 10° SSW 16:23:15 43° SE 16:41:35 10° ENE daylight
18 Jun - 18:21:52 10° WSW 18:41:45 89° NNW 19:00:10 10° ENE daylight
18 Jun - 20:42:09 10° W 21:01:29 50° NNW 21:15:29 10° NE visible
18 Jun - 23:06:39 10° WNW 23:21:07 34° N 23:30:17 10° ENE visible
19 Jun - 01:27:59 10° NW 01:38:42 43° NNE 01:44:57 10° E visible
19 Jun - 03:45:38 10° WNW 03:52:52 53° SW 03:57:26 10° SE night (unlit)
19 Jun - 15:08:29 10° SSW 15:21:27 30° SE 15:37:28 10° E daylight
19 Jun - 17:20:42 10° SW 17:39:06 75° SE 17:58:42 10° ENE daylight
19 Jun - 19:38:37 10° WSW 19:58:43 60° NNW 20:15:02 10° NE visible
19 Jun - 22:02:06 10° WNW 22:18:56 38° N 22:30:10 10° NE visible
20 Jun - 00:25:12 10° NW 00:37:46 38° N 00:45:14 10° ENE visible
20 Jun - 02:43:55 10° WNW 02:53:22 88° NNE 02:58:43 10° ESE visible
20 Jun - 05:04:19 10° WSW 05:05:31 11° SW 05:06:40 10° SSW visible
20 Jun - 14:10:49 10° S 14:20:00 19° SE 14:31:15 10° E daylight
20 Jun - 16:20:22 10° SW 16:36:46 59° SE 16:56:28 10° ENE daylight
20 Jun - 18:36:03 10° WSW 18:55:47 73° NNW 19:14:09 10° NE daylight
20 Jun - 20:57:38 10° W 21:16:18 44° NNW 21:29:49 10° NE visible
20 Jun - 23:21:39 10° WNW 23:36:15 37° N 23:45:15 10° ENE visible
21 Jun - 01:41:52 10° NW 01:53:17 62° NNE 01:59:36 10° ESE visible
21 Jun - 04:00:28 10° W 04:06:26 26° SW 04:10:34 10° SSE night (unlit)
21 Jun - 15:20:50 10° SSW 15:34:55 43° SE 15:53:15 10° ENE daylight
21 Jun - 17:34:27 10° WSW 17:52:55 87° NNW 18:12:47 10° ENE daylight
21 Jun - 19:53:44 10° W 20:13:18 51° NNW 20:29:11 10° NE visible
21 Jun - 22:17:30 10° WNW 22:34:07 38° N 22:45:00 10° ENE visible
22 Jun - 00:39:18 10° NW 00:52:36 50° NNE 01:00:07 10° E visible
22 Jun - 02:58:08 10° WNW 03:07:11 53° SW 03:12:30 10° SE visible
22 Jun - 14:22:13 10° S 14:33:34 29° SE 14:48:43 10° E daylight
22 Jun - 16:33:43 10° SW 16:50:22 77° SE 17:10:48 10° ENE daylight
22 Jun - 18:50:44 10° W 19:10:08 60° NNW 19:28:12 10° NE daylight
22 Jun - 21:13:11 10° WNW 21:31:25 41° N 21:44:28 10° ENE visible
22 Jun - 23:36:09 10° NW 23:51:16 44° NNE 00:00:15 10° E visible
23 Jun - 01:55:49 10° WNW 02:07:29 86° SSW 02:13:49 10° SE visible
23 Jun - 04:16:53 10° WSW 04:19:48 13° SW 04:22:16 10° SSW night (unlit)
23 Jun - 13:25:04 10° S 13:32:37 17° SE 13:42:06 10° E daylight
23 Jun - 15:33:47 10° SW 15:48:19 59° SE 16:08:05 10° ENE daylight
23 Jun - 17:48:41 10° WSW 18:07:01 71° NNW 18:26:46 10° NE daylight
23 Jun - 20:09:09 10° W 20:28:16 45° NNW 20:43:37 10° ENE visible
23 Jun - 22:32:28 10° WNW 22:49:17 41° N 23:00:02 10° ENE visible
24 Jun - 00:53:14 10° NW 01:07:07 70° NNE 01:14:40 10° ESE visible
24 Jun - 03:12:58 10° WNW 03:20:39 29° SW 03:25:39 10° SSE night (unlit)
24 Jun - 14:34:38 10° SSW 14:46:53 42° SE 15:04:29 10° ENE daylight
24 Jun - 16:47:33 10° WSW 17:04:11 85° NNW 17:24:52 10° ENE daylight
24 Jun - 19:05:50 10° W 19:24:52 51° NNW 19:42:25 10° NE daylight
24 Jun - 21:28:30 10° WNW 21:46:40 41° N 21:59:24 10° ENE visible
24 Jun - 23:50:17 10° NW 00:06:05 56° NNE 00:15:05 10° E visible
25 Jun - 02:10:03 10° WNW 02:21:14 54° SW 02:27:33 10° SE visible
25 Jun - 13:36:22 10° S 13:46:02 27° SE 13:59:41 10° E daylight
25 Jun - 15:47:14 10° SW 16:01:52 78° SE 16:22:25 10° ENE daylight
25 Jun - 18:03:23 10° W 18:21:29 59° NNW 18:40:51 10° NE daylight
25 Jun - 20:24:37 10° WNW 20:43:30 43° N 20:58:23 10° ENE visible
25 Jun - 22:46:58 10° WNW 23:04:21 49° NNE 23:15:01 10° E visible
26 Jun - 01:07:12 10° WNW 01:21:15 83° SSW 01:28:49 10° SE visible
26 Jun - 03:29:07 10° W 03:33:56 16° SW 03:37:40 10° SSW night (unlit)
26 Jun - 12:39:48 10° SSE 12:45:35 15° SE 12:52:46 10° ESE daylight
26 Jun - 14:47:39 10° SW 15:00:13 59° SE 15:19:19 10° ENE daylight
26 Jun - 17:01:51 10° WSW 17:18:22 70° NNW 17:38:52 10° NE daylight
26 Jun - 19:21:10 10° W 19:39:57 46° N 19:56:57 10° ENE visible
26 Jun - 21:43:25 10° WNW 22:01:54 45° N 22:14:28 10° ENE visible
27 Jun - 00:04:15 10° WNW 00:20:33 75° NNE 00:29:34 10° ESE visible
27 Jun - 02:24:53 10° WNW 02:34:37 32° SW 02:40:41 10° SSE visible
27 Jun - 13:48:48 10° SSW 13:59:17 41° SE 14:15:27 10° ENE daylight
27 Jun - 16:01:08 10° WSW 16:15:45 83° NNW 16:36:27 10° ENE daylight
27 Jun - 18:18:27 10° W 18:36:20 51° NNW 18:55:09 10° ENE daylight
27 Jun - 20:39:51 10° WNW 20:58:50 44° N 21:13:25 10° ENE visible
27 Jun - 23:01:07 10° NW 23:19:07 61° NNE 23:29:48 10° E visible
